Wind_Speed
15 13 10 9 9 8 7 6 5 4 4 5 5 5 4 5 6 6 7 7 7 8 8 8 8 8 8 8 9 9 9 8 8 8 8 9 9 9 9 9 9 9 9 10
15 14 10 9 10 9 8 7 6 6 6 6 6 6 5 6 6 6 6 6 7 7 8 8 8 7 7 8 9 9 9 9 8 8 8 9 9 10 10 10 9 9 9 10
16 14 12 12 12 11 9 9 7 6 7 8 8 8 7 7 8 6 6 7 7 8 8 7 7 7 7 7 8 8 9 9 9 9 9 9 9 10 10 10 10 10 10 11
17 16 14 14 14 13 11 10 9 8 9 9 10 10 9 9 8 7 7 8 7 8 8 8 7 7 7 7 8 9 9 9 9 9 10 10 10 10 10 11 11 11 11 11
18 17 16 16 14 14 11 11 11 11 11 10 11 11 9 10 8 7 8 8 8 8 9 9 8 8 8 8 8 9 9 9 10 10 10 10 10 11 11 12 12 12 13 13
18 17 17 16 15 13 11 12 13 12 13 12 11 12 10 9 9 8 9 9 9 10 11 10 9 8 9 9 9 9 10 10 10 11 10 10 11 11 12 13 13 14 14 14
19 19 18 17 15 14 14 14 14 15 15 13 12 12 10 9 9 9 9 9 9 11 12 12 11 10 10 10 10 10 11 11 11 11 11 11 11 12 13 13 14 14 14 15
20 20 19 18 15 15 16 16 16 16 15 13 14 14 11 10 10 11 11 11 11 11 12 12 12 10 10 11 11 11 12 12 12 12 12 12 13 13 13 14 14 15 16 16
19 19 18 17 16 16 16 17 16 17 16 16 16 16 13 12 12 12 13 13 12 12 13 13 12 12 11 12 13 13 13 12 13 13 13 14 14 14 14 15 15 16 17 17
19 20 19 19 19 19 17 16 17 18 19 19 18 16 14 14 14 15 15 15 14 12 12 12 13 13 13 13 14 15 14 14 14 15 15 15 15 15 15 16 17 18 18 19
20 21 20 20 21 21 19 19 18 19 20 21 20 18 16 16 15 15 16 17 14 13 13 13 14 14 14 15 14 15 15 16 16 17 17 17 17 17 17 17 18 19 19 20
20 21 21 21 21 21 21 21 21 21 20 21 21 21 19 19 17 16 16 16 16 14 13 13 15 16 16 16 16 16 17 17 18 18 19 19 18 18 19 19 20 21 21 21
22 23 23 23 23 23 23 22 22 22 22 23 23 22 20 20 19 19 18 18 17 17 16 16 17 18 18 18 18 18 18 18 18 19 19 19 20 20 20 20 21 21 21 22
23 24 25 24 24 26 27 25 24 23 24 23 22 21 21 20 19 19 19 19 18 19 19 19 20 20 21 21 21 21 19 19 19 19 20 20 21 21 21 21 22 23 23 22
25 25 25 25 26 26 27 27 26 25 24 24 23 22 21 21 20 20 21 21 20 21 21 20 21 22 23 22 21 21 21 21 20 20 21 22 22 22 23 23 23 24 24 24
25 26 25 25 26 28 28 29 29 28 26 25 25 23 23 22 22 22 22 22 22 23 23 23 23 23 23 23 22 22 22 22 22 22 22 23 23 24 24 24 25 25 25 24
26 26 25 25 25 28 30 29 29 29 27 27 26 24 24 24 23 24 25 25 26 26 26 25 25 25 25 25 24 24 23 24 24 24 24 24 25 25 26 26 26 26 26 25
27 27 27 25 26 28 27 27 27 27 27 27 27 27 26 26 26 27 28 28 28 28 28 27 27 26 26 26 26 26 25 25 25 25 25 26 26 27 27 27 27 27 27 27
27 27 28 27 27 28 28 27 28 29 29 29 29 28 27 27 29 29 29 30 30 29 29 29 28 27 27 27 27 27 26 27 27 27 27 27 28 28 29 29 29 29 29 28
27 28 29 29 29 29 28 28 29 29 30 31 31 30 30 29 29 29 29 30 30 30 30 28 28 28 28 27 27 28 28 28 27 28 28 29 29 29 29 30 30 30 30 29
29 30 31 31 31 31 29 27 28 30 29 29 30 31 31 29 28 28 29 30 30 29 29 29 28 28 28 29 29 28 29 29 29 29 30 30 31 31 31 31 30 30 30 29
30 31 32 32 32 32 30 30 30 31 31 31 32 32 31 30 29 29 30 30 30 29 29 29 30 30 30 30 30 30 30 30 31 30 31 31 32 32 32 32 31 30 30 30
30 32 32 32 31 31 31 31 31 31 32 32 32 32 31 30 30 30 30 31 30 28 28 30 30 30 30 31 31 31 30 30 31 31 31 32 32 33 33 33 32 31 31 30
31 31 31 32 31 32 31 31 32 32 32 33 32 31 31 30 30 30 30 30 29 28 28 29 30 30 30 31 30 30 30 31 31 31 32 33 33 34 34 32 31 30 30 30
33 33 33 33 33 33 32 31 31 31 31 31 31 31 31 32 31 31 31 31 31 30 30 31 31 31 31 31 32 31 31 31 32 32 32 32 33 32 32 31 30 30 30 30
33 34 34 33 33 32 31 31 30 30 30 31 32 31 31 31 31 31 32 33 32 33 33 33 32 32 32 32 32 32 33 33 33 33 33 33 34 33 32 32 30 30 30 30
Wind_Direction
206 202 196 197 203 205 212 220 242 260 254 271 280 294 330 340 346 4 7 360 355 355 357 359 2 2 2 4 360 -0 1 2 2 4 6 7 7 5 5 4 3 0 356 351
210 203 202 204 209 211 222 226 232 244 247 267 268 281 300 310 315 336 348 343 339 342 348 345 346 349 354 356 354 352 352 354 358 0 360 1 2 358 355 354 353 353 351 347
213 208 205 207 209 213 224 230 237 250 265 271 277 284 287 291 294 306 318 319 328 326 330 336 339 338 345 351 350 348 346 346 347 350 352 353 353 351 350 348 345 345 344 341
211 208 206 207 213 215 224 226 234 245 255 264 275 284 286 285 279 284 298 306 309 313 316 324 323 326 332 339 340 341 343 343 340 341 345 347 347 345 343 341 339 338 336 334
214 210 208 211 217 222 228 231 238 249 257 258 266 274 280 280 269 278 290 300 306 306 309 313 312 314 318 325 329 333 334 335 334 333 338 338 338 338 337 337 337 335 337 335
216 214 214 215 221 224 228 233 243 247 253 256 261 271 281 283 282 280 287 299 306 307 304 304 301 306 310 312 316 322 324 326 326 326 329 328 329 332 333 333 333 332 333 333
214 214 217 218 222 228 229 229 236 243 248 251 255 264 274 278 276 277 278 290 296 300 305 302 295 299 306 305 309 312 315 318 316 316 318 320 324 325 328 329 329 327 327 326
219 218 219 221 225 231 230 234 238 244 249 256 256 263 268 275 278 280 281 289 292 296 298 301 296 297 300 304 307 308 310 314 314 313 315 316 318 320 320 321 322 321 321 320
222 219 218 224 229 233 231 234 239 246 251 258 260 265 264 268 276 283 284 285 288 292 297 302 303 300 301 307 307 305 308 310 310 310 310 312 315 315 314 313 315 316 316 316
226 220 217 224 232 236 236 237 241 246 250 254 258 261 261 265 273 278 279 276 279 283 289 296 298 297 299 303 305 303 303 305 307 306 307 309 309 310 310 309 310 310 311 312
228 224 219 224 230 236 238 236 243 249 253 256 259 259 260 265 272 280 278 276 274 276 282 289 292 296 301 300 300 301 301 303 303 303 304 305 305 307 306 306 307 308 309 310
228 226 224 226 228 233 237 240 243 248 254 257 262 262 260 265 269 278 279 278 274 280 285 287 291 299 300 299 298 300 301 299 298 299 301 302 304 305 305 304 305 308 309 308
230 229 229 227 226 231 235 241 246 252 256 257 260 263 262 264 266 271 275 279 280 280 284 286 289 291 293 294 293 294 296 296 294 295 298 300 301 303 303 303 305 306 306 305
234 236 235 234 234 233 236 239 243 248 252 257 260 263 261 266 267 269 272 279 285 283 282 283 286 289 289 290 291 292 292 292 291 293 296 299 300 300 301 301 303 304 303 301
235 237 236 236 237 238 240 242 245 247 251 255 258 260 261 264 264 267 271 278 282 282 281 283 287 289 289 290 289 289 290 290 291 292 295 297 299 300 301 301 302 303 302 300
237 238 237 237 237 239 240 241 244 246 251 255 258 261 264 262 263 266 270 275 278 281 278 282 285 287 289 290 291 291 289 288 289 291 293 295 297 298 299 299 300 301 301 299
236 238 238 238 237 239 240 242 243 245 251 256 260 264 265 265 266 269 273 276 279 281 280 280 282 283 287 289 288 289 287 287 287 289 291 294 295 295 296 297 298 300 298 299
238 239 241 241 237 239 244 244 246 249 252 257 260 262 264 268 268 271 275 276 278 281 280 280 282 284 286 287 286 286 286 285 285 286 289 291 292 293 294 295 295 296 296 296
240 242 243 243 244 247 247 248 248 252 256 259 261 265 269 272 273 273 273 274 276 279 279 277 278 280 282 282 282 283 284 284 285 287 288 288 290 292 293 293 293 293 294 294
239 241 243 244 247 250 252 251 252 257 259 262 266 269 271 271 272 273 273 273 275 278 278 278 279 279 279 279 279 280 282 283 285 287 288 288 288 289 291 291 291 291 291 292
239 242 244 247 250 253 254 254 256 257 262 265 267 270 272 274 272 273 273 274 277 277 277 277 278 278 279 279 279 279 280 282 283 284 286 286 287 288 289 290 289 288 289 289
240 242 245 248 250 252 254 254 256 260 264 266 268 269 270 272 274 275 276 276 276 278 278 277 278 279 279 279 280 279 280 281 282 283 285 286 287 287 289 288 287 286 287 287
242 244 247 251 255 257 259 258 257 260 264 266 267 267 269 272 274 276 276 276 277 278 278 277 277 280 279 280 281 281 281 282 283 284 285 286 287 287 287 285 284 285 285 285
245 248 250 253 255 257 260 261 261 261 263 265 265 267 269 272 273 275 275 276 278 278 279 279 278 280 281 282 283 283 282 283 283 283 284 286 287 288 288 284 284 284 285 285
245 247 251 254 257 257 257 260 261 263 264 265 265 266 269 273 273 274 275 276 277 279 281 282 281 281 281 282 284 283 282 282 282 283 284 286 287 287 288 285 284 283 284 284
246 249 251 254 256 258 258 259 260 262 264 265 269 269 271 272 274 274 275 277 280 279 280 280 280 280 281 281 281 282 283 280 281 283 284 284 286 287 286 287 285 284 284 283
Height
5913 5916 5917 5918 5920 5921 5922 5923 5924 5924 5925 5925 5925 5925 5925 5925 5925 5925 5924 5924 5924 5923 5923 5922 5921 5919 5918 5917 5916 5915 5914 5913 5912 5911 5910 5909 5907 5906 5905 5903 5901 5900 5898 5897
5911 5913 5915 5916 5917 5919 5920 5921 5922 5923 5924 5924 5923 5923 5924 5923 5924 5923 5923 5923 5923 5922 5922 5921 5920 5919 5918 5917 5916 5915 5913 5912 5911 5911 5909 5908 5907 5905 5904 5902 5900 5899 5897 5895
5908 5912 5912 5913 5915 5917 5918 5920 5921 5922 5921 5921 5921 5922 5921 5922 5922 5922 5922 5922 5921 5921 5921 5920 5920 5918 5917 5916 5915 5914 5913 5912 5910 5909 5908 5907 5906 5904 5903 5901 5899 5897 5896 5894
5905 5907 5909 5910 5912 5914 5916 5918 5919 5919 5919 5919 5920 5920 5920 5919 5919 5919 5920 5920 5919 5919 5919 5919 5918 5917 5916 5915 5914 5913 5911 5910 5909 5908 5907 5905 5904 5903 5901 5899 5897 5895 5893 5891
5902 5904 5906 5908 5910 5912 5914 5915 5916 5916 5917 5917 5918 5918 5918 5917 5917 5917 5917 5917 5916 5917 5917 5917 5916 5915 5914 5913 5913 5911 5910 5909 5908 5907 5905 5904 5902 5901 5899 5897 5895 5893 5891 5889
5899 5901 5903 5905 5907 5909 5911 5912 5913 5913 5914 5915 5915 5915 5915 5914 5914 5914 5914 5915 5914 5914 5914 5914 5913 5912 5912 5911 5910 5909 5908 5907 5906 5905 5903 5902 5901 5899 5897 5895 5893 5891 5889 5887
5895 5897 5899 5902 5904 5906 5907 5909 5910 5910 5911 5912 5912 5911 5912 5912 5912 5911 5911 5911 5911 5912 5911 5911 5910 5909 5909 5908 5908 5907 5906 5905 5904 5902 5901 5899 5898 5896 5894 5892 5890 5888 5886 5884
5891 5894 5896 5898 5900 5902 5904 5905 5907 5907 5908 5909 5909 5909 5910 5909 5909 5908 5908 5908 5908 5909 5908 5908 5907 5906 5906 5905 5904 5904 5903 5902 5901 5899 5898 5897 5895 5893 5891 5889 5887 5885 5883 5881
5887 5891 5893 5895 5897 5899 5900 5901 5903 5904 5904 5904 5905 5906 5907 5906 5906 5906 5906 5906 5906 5905 5905 5904 5904 5903 5902 5902 5901 5900 5900 5899 5898 5897 5895 5893 5892 5890 5888 5886 5884 5881 5879 5877
5882 5886 5889 5891 5893 5894 5896 5898 5899 5899 5899 5900 5901 5901 5902 5902 5903 5903 5903 5903 5902 5902 5901 5901 5900 5900 5899 5899 5898 5897 5896 5895 5894 5893 5892 5890 5888 5886 5884 5882 5880 5877 5875 5873
5878 5881 5884 5886 5887 5890 5892 5893 5893 5894 5895 5896 5896 5899 5898 5898 5899 5898 5898 5899 5898 5898 5898 5897 5896 5896 5895 5895 5894 5893 5892 5891 5890 5889 5887 5885 5883 5882 5879 5877 5875 5873 5870 5868
5873 5876 5878 5881 5884 5885 5887 5888 5889 5890 5890 5891 5891 5895 5893 5894 5894 5894 5894 5894 5894 5894 5894 5893 5893 5892 5892 5891 5890 5889 5888 5887 5886 5884 5883 5881 5879 5877 5875 5872 5870 5868 5865 5863
5868 5871 5874 5876 5880 5881 5881 5882 5883 5885 5885 5885 5886 5890 5889 5889 5889 5890 5890 5890 5890 5890 5890 5890 5889 5888 5888 5887 5886 5884 5883 5882 5880 5879 5877 5875 5873 5871 5869 5867 5865 5863 5860 5857
5863 5866 5869 5872 5873 5874 5875 5877 5878 5879 5879 5880 5881 5883 5884 5884 5884 5884 5885 5884 5884 5885 5885 5885 5884 5883 5882 5881 5880 5879 5877 5876 5875 5873 5871 5869 5867 5865 5864 5862 5859 5857 5854 5852
5858 5860 5863 5866 5867 5868 5869 5871 5872 5873 5874 5875 5876 5877 5878 5878 5879 5879 5879 5879 5879 5879 5879 5879 5878 5877 5876 5875 5874 5873 5871 5870 5868 5867 5865 5864 5862 5860 5858 5856 5853 5851 5848 5845
5852 5855 5857 5860 5861 5863 5863 5865 5866 5867 5868 5869 5870 5871 5872 5872 5873 5873 5874 5874 5874 5873 5872 5872 5872 5871 5870 5869 5868 5867 5866 5864 5863 5861 5860 5858 5856 5854 5852 5850 5847 5844 5841 5839
5846 5849 5851 5853 5855 5856 5858 5860 5861 5862 5863 5864 5865 5866 5866 5866 5866 5867 5867 5867 5867 5866 5866 5866 5865 5864 5863 5862 5861 5860 5859 5858 5857 5855 5853 5852 5850 5848 5846 5843 5841 5838 5835 5832
5841 5843 5845 5847 5849 5850 5853 5853 5854 5855 5857 5857 5858 5859 5858 5859 5859 5860 5860 5860 5859 5859 5858 5858 5857 5856 5856 5855 5854 5853 5852 5851 5849 5847 5846 5845 5843 5841 5839 5836 5834 5831 5829 5826
5835 5836 5838 5840 5841 5843 5845 5846 5848 5849 5850 5851 5851 5851 5852 5852 5851 5851 5852 5852 5852 5851 5850 5850 5849 5849 5848 5848 5847 5846 5845 5844 5843 5841 5839 5838 5836 5834 5831 5829 5826 5824 5821 5819
5827 5830 5832 5833 5834 5836 5839 5840 5841 5843 5842 5844 5844 5845 5845 5844 5844 5844 5843 5842 5843 5843 5842 5842 5841 5841 5840 5840 5839 5838 5837 5836 5834 5833 5831 5830 5828 5826 5823 5821 5818 5815 5813 5811
5820 5822 5824 5825 5827 5828 5832 5833 5835 5836 5837 5837 5837 5837 5837 5836 5836 5836 5835 5835 5834 5834 5833 5833 5833 5832 5832 5831 5830 5829 5828 5827 5826 5825 5823 5821 5819 5817 5814 5812 5810 5807 5805 5803
5812 5815 5816 5817 5819 5823 5824 5826 5828 5828 5828 5828 5828 5829 5828 5828 5828 5827 5827 5826 5826 5825 5824 5824 5824 5823 5822 5821 5821 5820 5819 5818 5817 5815 5813 5812 5810 5808 5805 5803 5801 5798 5796 5794
5804 5807 5809 5811 5813 5814 5815 5817 5818 5819 5820 5820 5820 5820 5820 5820 5819 5819 5818 5817 5817 5816 5816 5815 5815 5814 5813 5813 5812 5811 5810 5808 5807 5806 5804 5802 5800 5798 5796 5794 5791 5789 5787 5785
5797 5799 5801 5802 5804 5805 5807 5808 5809 5811 5812 5812 5812 5812 5812 5811 5811 5810 5809 5809 5808 5807 5807 5806 5806 5805 5804 5803 5802 5802 5800 5799 5798 5796 5795 5793 5791 5789 5786 5783 5781 5779 5777 5775
5790 5792 5793 5794 5796 5798 5799 5800 5801 5802 5803 5803 5803 5803 5803 5803 5803 5802 5801 5801 5800 5800 5799 5798 5797 5797 5796 5794 5793 5793 5791 5790 5788 5787 5785 5784 5781 5779 5777 5774 5772 5770 5768 5765
5782 5784 5786 5787 5788 5790 5791 5792 5793 5794 5794 5794 5795 5795 5795 5794 5794 5794 5793 5792 5792 5791 5790 5789 5788 5787 5786 5785 5784 5783 5781 5779 5778 5777 5775 5774 5771 5769 5766 5764 5762 5760 5758 5755